Weather in Gongju

South Korea     36°28′13″N   127°07′55″E
temp.,
°C
wind,
m/s
gust,
m/s
humid.,
%
clouds,
%
prec.,
mm/h
press.,
hPa
HPBL,
m
27 february, sat
sat2700:00+6e41260100 0.0 1027515
03:00+5e41265100 0.0 1027539
06:00+4e4137393 0.0 1029668
09:00+6e7136582 0.0 1030839
12:00+8e71254100 0.0 1030933
15:00+10e71248100 0.0 1028897
18:00+7e51157100 0.0 1029801
21:00+4e51267100 0.0 1031671
28 february, sun
sun2800:00+3e4117087 0.0 1031476
03:00+2ene367593 0.0 1030212
06:00+1e23811 0.0 102996
09:00+4ese24660 0.0 1028297
12:00+11sse114110 0.0 1027474
15:00+8wnw245755 0.0 1025182
18:00+6n1279100 0.6 1026129
21:00+6n1281100 0.8 1026131
1 march, mon
mon100:00+6e1282100 0.4 102597
03:00+5ne2392100 3.3 1024161
06:00+5ne2396100 3.1 1022146
09:00+6nne2497100 5.7 1023167
12:00+7n2293100 0.3 1020145
15:00+7n2496100 1.0 1017169
18:00+6n3597100 3.8 1015231
21:00+4nne51195100 14.2 1016384
2 march, tue
tue200:00+3nne5995100 11.4 1015342
03:00+1n4997100 17.4 1016448
06:00+1n4791100 1.2 1018562
09:00+1n358495 1.3 1021452
12:00+4n457016 0.0 1023789
15:00+5n456328 0.0 1024978
18:00+4nne35712 0.0 1026374
21:00+1nnw11821 0.0 102868
3 march, wed
wed300:000n11850 0.0 102935
03:000ene12870 0.0 102962
06:000ene118348 0.0 103035
09:00+2e117173 0.0 1030256
12:00+7ssw2453100 0.0 1028917
15:00+9sw4646100 0.0 10261196
18:00+6wsw256829 0.0 1026264
21:00+4ssw118214 0.0 102722